Location: Unspecified
(34.4950°S, 58.5160°W)
Time: 23:19:50
(UTC+00:00)

Cosmos 1937 Rocket - Pass Details

Date: 19 April 2026
Orbit: 742 x 775 km, 74.0° (Epoch: 16 May)

Event Time Altitude Azimuth Distance (km) Brightness Sun altitude
Rises 09:49:38 0° 352° (N) 3,169 6.7 -7.1°
Reaches altitude 10° 09:51:58 10° 354° (N) 2,253 6.0 -6.6°
Maximum altitude 09:57:02 67° 76° (ENE) 815 4.0 -5.6°
Drops below altitude 10° 10:02:09 10° 157° (SSE) 2,286 6.1 -4.5°
Sets 10:04:33 0° 159° (SSE) 3,220 6.9 -4.0°
